Current Weather Conditions: station 63103

sailwx.info

Wind from 270 at 12 knots

Wave height 2.1 meters (6 feet), 6 second period

Air temperature 7.1° C
Dewpoint 2.7° C

Last reported at 2017-Jan-23 11:00 UTC.
Time now 2017-Jan-23 12:50 UTC

Location: N 61°12' E 001°06'.
View on Google Maps.

See reports from other nearby stations

  
Tides and Currents Weather Stations Pressure Air Temp Water Temp Dewpoint Dewpoint Depression Visibility Wind Speed Wind Dir Waves Ship Positions
date/time (UTC)wind fromknots sea level pressurealtimeterstation pressurevisibilityair tempwater tempwave heightnotes
2017-Jan-23 11:00 270 12 7.1 2.1
2017-Jan-23 10:00 270 14 6.6 2.1
2017-Jan-23 09:00 290 6 6.7 2.0
2017-Jan-23 08:00 280 11 6.8 2.1
2017-Jan-23 07:00 270 12 6.6 2.2
2017-Jan-23 06:00 290 11 7.0 2.1
2017-Jan-23 05:00 290 9 6.9 2.1
2017-Jan-23 04:00 280 13 7.1 2.3
2017-Jan-23 03:00 270 13 6.9 2.0
2017-Jan-23 02:00 280 13 6.6 2.3
2017-Jan-23 01:00 270 13 7.4 2.1
2017-Jan-23 00:00 280 11 7.5 2.2
2017-Jan-22 23:00 300 12 7.5 2.1
2017-Jan-22 22:00 270 11 7.5 2.2
2017-Jan-22 21:00 260 18 7.5 2.3
2017-Jan-22 20:00 260 17 7.8 2.3
2017-Jan-22 19:00 250 15 7.7 2.2
2017-Jan-22 18:00 250 13 7.7 2.4
2017-Jan-22 17:00 250 14 7.7 2.6
2017-Jan-22 16:00 240 13 7.7 2.4
2017-Jan-22 15:00 250 13 7.6 2.6
2017-Jan-22 14:00 250 14 7.7 2.4
2017-Jan-22 13:00 240 15 7.7 2.6
2017-Jan-22 12:00 240 13 7.8 2.8
2017-Jan-22 11:00 240 12 7.8 2.7
2017-Jan-22 10:00 230 9 7.6 2.5
2017-Jan-22 09:00 240 8 7.4 2.6
2017-Jan-22 08:00 240 11 7.7 2.8
2017-Jan-22 07:00 240 11 7.8 2.4
2017-Jan-22 06:00 240 13 7.7 2.7
2017-Jan-22 05:00 230 13 7.8 2.6
2017-Jan-22 04:00 230 13 7.6 2.8
2017-Jan-22 03:00 230 13 7.5 2.5
2017-Jan-22 02:00 230 12 7.4 2.7
2017-Jan-22 01:00 230 11 7.1 2.5
2017-Jan-22 00:00 230 13 7.1 2.4
2017-Jan-21 23:00 220 9 7.2 2.5
2017-Jan-21 22:00 230 11 7.2 2.6
2017-Jan-21 21:00 230 12 7.4 2.4
2017-Jan-21 20:00 240 9 7.2 2.6
2017-Jan-21 19:00 240 13 7.1 2.6
2017-Jan-21 18:00 230 15 7.3 2.7
2017-Jan-21 17:00 220 15 7.4 2.6
2017-Jan-21 16:00 230 19 7.1 2.6
2017-Jan-21 15:00 220 21 7.4 2.4
2017-Jan-21 14:00 210 21 7.3 2.4
2017-Jan-21 13:00 200 20 7.0 2.5
2017-Jan-21 12:00 200 21 7.0 2.2